EN

Hourly Weather Belfast

Today, 23 October, Friday

Time Temperature Precipitation Wind Pressure Humidity
00:00 +7°C° 0 mm 6 mps 750 mmHg 79%
01:00 +7°C° 0.4 mm 6 mps 749 mmHg 82%
02:00 +7°C° 0.4 mm 6 mps 749 mmHg 85%
03:00 +7°C° 0.4 mm 6 mps 748 mmHg 88%
04:00 +7°C° 1.7 mm 6 mps 748 mmHg 90%
05:00 +7°C° 1.7 mm 6 mps 748 mmHg 93%
06:00 +7°C° 1.7 mm 5 mps 747 mmHg 95%
07:00 +7°C° 0.1 mm 5 mps 748 mmHg 92%
08:00 +7°C° 0.1 mm 5 mps 748 mmHg 89%
09:00 +7°C° 0.1 mm 5 mps 748 mmHg 86%
10:00 +7°C° 0 mm 5 mps 748 mmHg 84%
11:00 +8°C° 0 mm 6 mps 749 mmHg 81%
12:00 +9°C° 0 mm 6 mps 749 mmHg 79%
13:00 +8°C° 0 mm 9 mps 743 mmHg 87%
14:00 +9°C° 0 mm 7 mps 747 mmHg 81%
15:00 +8°C° 0 mm 5 mps 751 mmHg 75%
16:00 +7°C° 0 mm 5 mps 751 mmHg 79%
17:00 +6°C° 0 mm 5 mps 751 mmHg 82%
18:00 +5°C° 0 mm 4 mps 751 mmHg 85%
19:00 +5°C° 0 mm 5 mps 750 mmHg 84%
20:00 +5°C° 0 mm 5 mps 750 mmHg 84%
21:00 +5°C° 0 mm 5 mps 750 mmHg 83%
22:00 +5°C° 0.2 mm 6 mps 749 mmHg 84%
23:00 +5°C° 0.2 mm 7 mps 748 mmHg 85%

Tomorrow, 24 October, Saturday

Time Temperature Precipitation Wind Pressure Humidity
00:00 +5°C° 0.2 mm 9 mps 747 mmHg 87%
01:00 +6°C° 0.6 mm 10 mps 745 mmHg 86%
02:00 +7°C° 0.6 mm 10 mps 744 mmHg 86%
03:00 +8°C° 0.6 mm 11 mps 742 mmHg 86%
04:00 +8°C° 0.7 mm 11 mps 741 mmHg 88%
05:00 +9°C° 0.7 mm 11 mps 740 mmHg 90%
06:00 +9°C° 0.7 mm 10 mps 740 mmHg 92%
07:00 +10°C° 0.8 mm 9 mps 740 mmHg 91%
08:00 +9°C° 0.8 mm 8 mps 739 mmHg 90%
09:00 +8°C° 0.8 mm 7 mps 739 mmHg 89%
10:00 +7°C° 0.1 mm 8 mps 740 mmHg 87%
11:00 +7°C° 0.1 mm 8 mps 740 mmHg 86%
12:00 +7°C° 0.1 mm 8 mps 740 mmHg 84%
13:00 +8°C° 0.1 mm 7 mps 740 mmHg 83%
14:00 +8°C° 0.1 mm 7 mps 739 mmHg 82%
15:00 +8°C° 0.1 mm 7 mps 739 mmHg 81%
16:00 +8°C° 0 mm 7 mps 739 mmHg 82%
17:00 +6°C° 0 mm 7 mps 739 mmHg 83%
18:00 +5°C° 0 mm 7 mps 739 mmHg 84%
19:00 +5°C° 0 mm 7 mps 739 mmHg 83%
20:00 +5°C° 0 mm 8 mps 738 mmHg 83%
21:00 +5°C° 0 mm 8 mps 738 mmHg 83%
22:00 +5°C° 0 mm 8 mps 738 mmHg 83%
23:00 +5°C° 0 mm 8 mps 738 mmHg 83%

Day after tomorrow, 25 October, Sunday

Time Temperature Precipitation Wind Pressure Humidity
00:00 +5°C° 0 mm 9 mps 738 mmHg 83%
01:00 +5°C° 0 mm 9 mps 738 mmHg 84%
02:00 +5°C° 0 mm 9 mps 738 mmHg 84%
03:00 +5°C° 0 mm 9 mps 738 mmHg 84%
04:00 +5°C° 0 mm 8 mps 738 mmHg 84%
05:00 +4°C° 0 mm 8 mps 739 mmHg 84%
06:00 +4°C° 0 mm 8 mps 739 mmHg 84%
07:00 +5°C° 0 mm 8 mps 739 mmHg 84%
08:00 +5°C° 0 mm 8 mps 739 mmHg 84%
09:00 +6°C° 0 mm 8 mps 740 mmHg 83%
10:00 +6°C° 0 mm 8 mps 740 mmHg 81%
11:00 +7°C° 0 mm 8 mps 741 mmHg 79%
12:00 +9°C° 0 mm 8 mps 741 mmHg 76%
13:00 +9°C° 0.1 mm 8 mps 741 mmHg 78%
14:00 +9°C° 0.1 mm 7 mps 741 mmHg 79%
15:00 +9°C° 0.1 mm 6 mps 742 mmHg 80%
16:00 +8°C° 0 mm 6 mps 742 mmHg 83%
17:00 +7°C° 0 mm 5 mps 742 mmHg 86%
18:00 +6°C° 0 mm 5 mps 743 mmHg 89%
19:00 +6°C° 0 mm 5 mps 743 mmHg 89%
20:00 +5°C° 0 mm 5 mps 744 mmHg 89%
21:00 +4°C° 0 mm 6 mps 744 mmHg 89%
22:00 +4°C° 0 mm 6 mps 745 mmHg 90%
23:00 +4°C° 0 mm 6 mps 745 mmHg 90%

, 26 October, Monday

Time Temperature Precipitation Wind Pressure Humidity
00:00 +3°C° 0 mm 6 mps 745 mmHg 91%
01:00 +5°C° 0 mm 5 mps 745 mmHg 92%
02:00 +5°C° 0 mm 5 mps 746 mmHg 93%
03:00 +5°C° 0 mm 5 mps 746 mmHg 94%
04:00 +5°C° 0 mm 5 mps 747 mmHg 93%
05:00 +5°C° 0 mm 5 mps 747 mmHg 93%
06:00 +5°C° 0 mm 5 mps 748 mmHg 92%
07:00 +5°C° 0 mm 5 mps 749 mmHg 89%
08:00 +6°C° 0 mm 5 mps 749 mmHg 87%
09:00 +6°C° 0 mm 5 mps 750 mmHg 84%
10:00 +7°C° 0 mm 6 mps 750 mmHg 81%
11:00 +8°C° 0 mm 6 mps 750 mmHg 78%
12:00 +9°C° 0 mm 6 mps 751 mmHg 75%
13:00 +9°C° 0 mm 6 mps 751 mmHg 76%
14:00 +9°C° 0 mm 6 mps 751 mmHg 76%
15:00 +9°C° 0 mm 5 mps 751 mmHg 76%
16:00 +7°C° 0 mm 5 mps 752 mmHg 80%
17:00 +6°C° 0 mm 4 mps 752 mmHg 84%
18:00 +5°C° 0 mm 4 mps 752 mmHg 88%
19:00 +4°C° 0 mm 4 mps 752 mmHg 89%
20:00 +4°C° 0 mm 4 mps 752 mmHg 89%
21:00 +4°C° 0 mm 3 mps 752 mmHg 90%
22:00 +5°C° 0 mm 4 mps 752 mmHg 89%
23:00 +5°C° 0 mm 4 mps 751 mmHg 87%

26 October, Monday

Time Temperature Precipitation Wind Pressure Humidity
00:00 +3°C° 0 mm 6 mps 745 mmHg 91%
01:00 +5°C° 0 mm 5 mps 745 mmHg 92%
02:00 +5°C° 0 mm 5 mps 746 mmHg 93%
03:00 +5°C° 0 mm 5 mps 746 mmHg 94%
04:00 +5°C° 0 mm 5 mps 747 mmHg 93%
05:00 +5°C° 0 mm 5 mps 747 mmHg 93%
06:00 +5°C° 0 mm 5 mps 748 mmHg 92%
07:00 +5°C° 0 mm 5 mps 749 mmHg 89%
08:00 +6°C° 0 mm 5 mps 749 mmHg 87%
09:00 +6°C° 0 mm 5 mps 750 mmHg 84%
10:00 +7°C° 0 mm 6 mps 750 mmHg 81%
11:00 +8°C° 0 mm 6 mps 750 mmHg 78%
12:00 +9°C° 0 mm 6 mps 751 mmHg 75%
13:00 +9°C° 0 mm 6 mps 751 mmHg 76%
14:00 +9°C° 0 mm 6 mps 751 mmHg 76%
15:00 +9°C° 0 mm 5 mps 751 mmHg 76%
16:00 +7°C° 0 mm 5 mps 752 mmHg 80%
17:00 +6°C° 0 mm 4 mps 752 mmHg 84%
18:00 +5°C° 0 mm 4 mps 752 mmHg 88%
19:00 +4°C° 0 mm 4 mps 752 mmHg 89%
20:00 +4°C° 0 mm 4 mps 752 mmHg 89%
21:00 +4°C° 0 mm 3 mps 752 mmHg 90%
22:00 +5°C° 0 mm 4 mps 752 mmHg 89%
23:00 +5°C° 0 mm 4 mps 751 mmHg 87%

27 October, Tuesday

Time Temperature Precipitation Wind Pressure Humidity
00:00 +5°C° 0 mm 4 mps 751 mmHg 85%
01:00 +6°C° 0 mm 5 mps 750 mmHg 84%
02:00 +6°C° 0 mm 5 mps 750 mmHg 84%
03:00 +7°C° 0 mm 6 mps 749 mmHg 83%
04:00 +6°C° 0.3 mm 7 mps 748 mmHg 86%
05:00 +6°C° 0.3 mm 7 mps 747 mmHg 90%
06:00 +7°C° 0.3 mm 8 mps 746 mmHg 93%
07:00 +9°C° 0.6 mm 8 mps 745 mmHg 94%
08:00 +9°C° 0.6 mm 8 mps 744 mmHg 94%
09:00 +10°C° 0.6 mm 9 mps 743 mmHg 94%
10:00 +10°C° 1.3 mm 8 mps 743 mmHg 94%
11:00 +10°C° 1.3 mm 7 mps 743 mmHg 94%
12:00 +10°C° 1.3 mm 6 mps 743 mmHg 94%
13:00 +9°C° 0.5 mm 6 mps 743 mmHg 90%
14:00 +9°C° 0.5 mm 6 mps 743 mmHg 86%
15:00 +8°C° 0.5 mm 6 mps 743 mmHg 81%
16:00 +7°C° 0 mm 6 mps 744 mmHg 83%
17:00 +5°C° 0 mm 6 mps 744 mmHg 85%
18:00 +5°C° 0 mm 6 mps 745 mmHg 88%
19:00 +4°C° 0 mm 6 mps 745 mmHg 87%
20:00 +4°C° 0 mm 6 mps 745 mmHg 87%
21:00 +4°C° 0 mm 7 mps 745 mmHg 87%
22:00 +4°C° 0 mm 7 mps 745 mmHg 87%
23:00 +4°C° 0 mm 8 mps 745 mmHg 87%

28 October, Wednesday

Time Temperature Precipitation Wind Pressure Humidity
00:00 +5°C° 0 mm 8 mps 745 mmHg 87%
01:00 +5°C° 0 mm 8 mps 745 mmHg 86%
02:00 +5°C° 0 mm 8 mps 745 mmHg 86%
03:00 +5°C° 0 mm 8 mps 745 mmHg 85%
04:00 +5°C° 0 mm 7 mps 745 mmHg 86%
05:00 +5°C° 0 mm 7 mps 745 mmHg 86%
06:00 +4°C° 0 mm 7 mps 745 mmHg 86%
07:00 +4°C° 0 mm 7 mps 745 mmHg 87%
08:00 +4°C° 0 mm 7 mps 745 mmHg 88%
09:00 +4°C° 0 mm 7 mps 745 mmHg 89%
10:00 +5°C° 0.3 mm 7 mps 745 mmHg 88%
11:00 +5°C° 0.3 mm 7 mps 745 mmHg 88%
12:00 +5°C° 0.3 mm 7 mps 745 mmHg 88%
13:00 +5°C° 0.3 mm 8 mps 745 mmHg 86%
14:00 +6°C° 0.3 mm 8 mps 746 mmHg 83%
15:00 +6°C° 0.3 mm 8 mps 746 mmHg 81%
16:00 +5°C° 0 mm 8 mps 746 mmHg 82%
17:00 +4°C° 0 mm 7 mps 746 mmHg 84%
18:00 +4°C° 0 mm 7 mps 746 mmHg 85%
19:00 +4°C° 0 mm 7 mps 747 mmHg 85%
20:00 +3°C° 0 mm 7 mps 747 mmHg 85%
21:00 +3°C° 0 mm 7 mps 748 mmHg 85%
22:00 +3°C° 0 mm 7 mps 747 mmHg 86%
23:00 +3°C° 0 mm 6 mps 747 mmHg 87%
Show more